Simultaneous Nadir Overpasses (SNOs) Predictions

Prediction of SNOs between NOAA-19 and TERRA Satellite Orbit:

Table of predicted SNOs for the next 14.0 days since TLE Epoch: 12/12/2015
Index Date (NOAA-19) Time (NOAA-19) Lat,Lon (NOAA-19) SZA (NOAA-19 ) Date (TERRA) Time (TERRA) Lat,Lon (TERRA) SZA (TERRA ) Distance(km) Time Diff (sec)
1 12/13/2015 13:37:59 -72.93, 160.73 83.92 12/13/2015 13:38:31 -72.91, 160.81 83.93 3.38 32
2 12/13/2015 14:28:55 72.83, -31.79 96.00 12/13/2015 14:27:58 72.82, -31.73 95.98 2.72 57
3 12/15/2015 18:21:27 -73.72, 88.11 83.05 12/15/2015 18:22:32 -73.65, 91.26 83.03 98.71 65
4 12/15/2015 19:12:07 72.86,-102.62 96.15 12/15/2015 19:12:12 72.87,-102.68 96.15 2.35 5
5 12/15/2015 20:02:59 -72.23, 65.96 84.44 12/15/2015 20:01:51 -72.28, 63.84 84.47 72.04 68
6 12/17/2015 23:55:20 72.95,-173.56 96.31 12/17/2015 23:56:25 72.97,-173.55 96.34 2.24 65
7 12/18/2015 00:46:23 -72.85, -6.10 83.79 12/18/2015 00:45:55 -72.86, -6.14 83.78 1.73 28
8 12/20/2015 05:29:36 -72.92, -77.03 83.67 12/20/2015 05:30:08 -72.95, -77.03 83.64 2.79 32
9 12/20/2015 06:20:31 72.82, 90.45 96.24 12/20/2015 06:19:35 72.85, 90.42 96.26 2.52 56
10 12/22/2015 10:13:04 -73.74,-149.70 82.88 12/22/2015 10:14:09 -73.65,-146.63 82.88 96.27 65
11 12/22/2015 11:03:44 72.92, 19.49 96.34 12/22/2015 11:03:48 72.92, 19.52 96.35 1.07 4
12 12/22/2015 11:54:36 -72.24,-171.85 84.30 12/22/2015 11:53:28 -72.29,-174.06 84.33 74.96 68
13 12/24/2015 15:46:56 72.97, -51.37
